Kodiak, AK

5:47 AM AKDT on October 20, 2017 (GMT -0800)
Kodiak

Weather History for PADQ - December, 2011

Change the Weather History Date:

Friday, December 30, 2011

  Actual Average Record
Temperature  
Mean Temperature 7 °F 31 °F  
Max Temperature 11 °F 36 °F 46 °F (1980)
Min Temperature 3 °F 26 °F -9 °F (1916)
Degree Days  
Heating Degree Days 58 34  
Month to date heating degree days 1068 1015  
Since 1 July heating degree days 3962 3810  
Cooling Degree Days 0 0  
Month to date cooling degree days 0 0  
Year to date cooling degree days 0 1  
Moisture  
Dew Point -4 °F    
Average Humidity 0    
Maximum Humidity 0    
Minimum Humidity 0    
Precipitation  
Precipitation 0.02 in 0.28 in 1.87 in (1978)
Month to date precipitation 5.92 8.45  
Year to date precipitation 70.53 77.72  
Snow  
Snow 0.50 in 0.40 in 9.00 in (1975)
Month to date snowfall 8.8 13.4  
Since 1 July snowfall 36.5 20.9  
Snow Depth 1.00 in    
Sea Level Pressure  
Sea Level Pressure 29.53 in    
Wind  
Wind Speed 8 mph (WSW)    
Max Wind Speed 23 mph    
Max Gust Speed 31 mph    
Visibility 7 miles    
Events Snow    
T = Trace of Precipitation, MM = Missing Value Source: NWS Daily Summary

Daily Weather History Graph

Daily Weather History Graph

Search for Another Location

Airport or City:

Trip Planner

Search our weather history database for the weather conditions in past years. The results will help you decide how hot, cold, wet, or windy it might be!

Date:

Astronomy

Dec. 30, 2011 Rise Set
Actual Time 9:54 AM AKST 4:31 PM AKST
Civil Twilight 9:03 AM AKST 5:22 PM AKST
Nautical Twilight 8:11 AM AKST 6:13 PM AKST
Astronomical Twilight 7:23 AM AKST 7:01 PM AKST
Moon 11:49 AM AKST (12/30) No Moon Set
Length of Visible Light 8h 18m
Length of Day
6h 37m
Waxing Crescent, 37% of the Moon is Illuminated
Dec 30
Waxing Crescent
Dec 31
First Quarter
Jan 8
Full
Jan 16
Last Quarter
Jan 22
New

Hourly Weather History & Observations

Time (AKST) Temp. Windchill Dew Point Humidity Pressure Visibility Wind Dir Wind Speed Gust Speed Precip Events Conditions
12:01 AM 10.4 °F - 5.0 °F 79% 29.46 in 2.5 mi Calm Calm - 0.00 in Snow Light Snow
12:11 AM 10.4 °F - 5.0 °F 79% 29.46 in 2.5 mi Calm Calm - 0.01 in Snow Light Snow
12:16 AM 10.4 °F - 5.0 °F 79% 29.46 in 3.0 mi Calm Calm - 0.01 in Snow Light Snow
12:30 AM 10.4 °F -7.7 °F 3.2 °F 73% 29.47 in 4.0 mi West 18.4 mph 26.5 mph 0.01 in Snow Light Snow
12:39 AM 10.4 °F -4.8 °F 1.4 °F 67% 29.47 in 2.0 mi West 12.7 mph 26.5 mph 0.01 in Snow Light Snow
12:49 AM 10.4 °F -4.8 °F -0.4 °F 62% 29.47 in 8.0 mi SW 12.7 mph 20.7 mph 0.01 in Snow Light Snow
12:53 AM 10.0 °F -7.1 °F -2.0 °F 58% 29.47 in 9.0 mi West 16.1 mph 23.0 mph 0.01 in   Scattered Clouds
1:53 AM 8.1 °F -9.0 °F -6.0 °F 53% 29.49 in 10.0 mi WSW 15.0 mph 24.2 mph N/A   Scattered Clouds
2:29 AM 6.8 °F -10.7 °F -5.8 °F 56% 29.48 in 6.0 mi WNW 15.0 mph 24.2 mph 0.00 in Snow Light Snow
2:53 AM 7.0 °F -4.5 °F -5.1 °F 58% 29.49 in 6.0 mi West 6.9 mph 23.0 mph 0.00 in Snow Light Snow
3:18 AM 6.8 °F -5.9 °F -2.2 °F 67% 29.48 in 2.5 mi WSW 8.1 mph - 0.00 in Snow Light Snow
3:53 AM 7.0 °F 0.1 °F -0.9 °F 70% 29.49 in 1.8 mi SW 3.5 mph - 0.00 in Snow Light Snow
4:03 AM 8.6 °F -1.3 °F -0.4 °F 67% 29.48 in 2.0 mi West 5.8 mph - 0.00 in Snow Light Snow
4:14 AM 8.6 °F -6.3 °F -0.4 °F 67% 29.49 in 1.5 mi SW 11.5 mph 19.6 mph 0.00 in Snow Light Snow
4:53 AM 7.0 °F -3.3 °F -0.0 °F 73% 29.49 in 2.0 mi SW 5.8 mph - 0.01 in Snow Light Snow
5:22 AM 8.6 °F 2.0 °F -0.4 °F 67% 29.49 in 3.0 mi Variable 3.5 mph - 0.00 in Snow Light Snow
5:30 AM 8.6 °F -3.7 °F -0.4 °F 67% 29.49 in 2.5 mi WSW 8.1 mph - 0.00 in Snow Light Snow
5:37 AM 8.6 °F -3.7 °F -2.2 °F 62% 29.49 in 4.0 mi SW 8.1 mph 18.4 mph 0.00 in Snow Light Snow
5:53 AM 8.1 °F -3.2 °F -2.0 °F 64% 29.49 in 5.0 mi SW 6.9 mph - 0.00 in Snow Light Snow
6:53 AM 7.0 °F -4.5 °F -5.1 °F 58% 29.51 in 7.0 mi West 6.9 mph - 0.00 in Snow Light Snow
7:18 AM 6.8 °F -3.5 °F -5.8 °F 56% 29.50 in 10.0 mi West 5.8 mph - N/A   Mostly Cloudy
7:25 AM 6.8 °F -10.0 °F -5.8 °F 56% 29.50 in 8.0 mi WSW 13.8 mph 17.3 mph N/A   Mostly Cloudy
7:53 AM 7.0 °F -9.8 °F -5.1 °F 58% 29.50 in 10.0 mi West 13.8 mph 19.6 mph 0.00 in   Mostly Cloudy
8:07 AM 6.8 °F -11.3 °F -5.8 °F 56% 29.50 in 9.0 mi West 16.1 mph - N/A   Scattered Clouds
8:53 AM 6.1 °F -10.9 °F -7.1 °F 55% 29.51 in 9.0 mi West 13.8 mph 20.7 mph N/A   Scattered Clouds
9:53 AM 7.0 °F -12.1 °F -5.1 °F 58% 29.52 in 9.0 mi West 18.4 mph 25.3 mph N/A   Scattered Clouds
10:53 AM 8.1 °F -7.7 °F -5.1 °F 55% 29.54 in 9.0 mi West 12.7 mph - 0.00 in Snow Light Snow
11:53 AM 8.1 °F -2.0 °F -4.0 °F 58% 29.55 in 9.0 mi SW 5.8 mph - 0.00 in Snow Light Snow
12:53 PM 9.0 °F -0.9 °F -5.1 °F 53% 29.55 in 9.0 mi West 5.8 mph - 0.00 in Snow Light Snow
1:53 PM 9.0 °F -3.2 °F -6.0 °F 51% 29.56 in 9.0 mi West 8.1 mph - 0.00 in   Scattered Clouds
2:53 PM 9.0 °F 0.6 °F -6.0 °F 51% 29.57 in 9.0 mi SSW 4.6 mph - N/A   Scattered Clouds
3:53 PM 8.1 °F -3.2 °F -7.1 °F 50% 29.59 in 9.0 mi SW 6.9 mph - N/A   Scattered Clouds
4:53 PM 6.1 °F - -7.1 °F 55% 29.60 in 10.0 mi Calm Calm - N/A   Scattered Clouds
5:53 PM 6.1 °F - -7.1 °F 55% 29.60 in 10.0 mi Calm Calm - N/A   Partly Cloudy
6:53 PM 3.9 °F - -7.1 °F 60% 29.62 in 10.0 mi Calm Calm - N/A   Partly Cloudy
7:53 PM 7.0 °F -3.3 °F -8.0 °F 51% 29.64 in 10.0 mi West 5.8 mph - N/A   Partly Cloudy
8:53 PM 5.0 °F -5.6 °F -8.0 °F 55% 29.66 in 10.0 mi WSW 5.8 mph - N/A   Partly Cloudy
9:53 PM 5.0 °F -6.9 °F -7.1 °F 58% 29.68 in 10.0 mi NW 6.9 mph - N/A   Partly Cloudy
10:53 PM 3.9 °F -6.9 °F -8.0 °F 58% 29.70 in 10.0 mi WNW 5.8 mph - N/A   Partly Cloudy
11:53 PM 3.9 °F -8.2 °F -8.0 °F 58% 29.72 in 10.0 mi NW 6.9 mph - N/A   Partly Cloudy